Home   Weather   Bretten   Past weeks

Flag for Germany Past Weather in Bretten, Baden-Württemberg, Germany — Yesterday and Last 2 Weeks

Now
72 °F

Passing clouds.


Feels Like: 77 °F
Forecast: 58 / 66 °F
Wind: 13 mph from West

Location: Mannheim City

Current Time: Jul 23, 2017 at 7:10:30 pm

Latest Report: Jul 23, 2017 at 6:20 pm


Visibility: N/A

Pressure: 30.01 "Hg

Humidity: 41%

Dew Point: 46 °F

Location of BrettenLocation

Past Weather in Bretten — Graph

°F

Bretten Temperature Yesterday

Maximum temperature yesterday: 84 °F (at 5:20 pm)
Minimum temperature yesterday: 68 °F (at 8:20 am)
Average temperature yesterday: 78 °F

High & Low Weather Summary for the Past Weeks

 TemperatureHumidityPressure
High93 °F (Jul 19, 3:20 pm)100% (Jul 11, 5:20 am)30.27 "Hg (Jul 11, 5:20 am)
Low50 °F (Jul 13, 5:50 am)26% (Jul 8, 7:20 pm)29.77 "Hg (Jul 10, 2:20 pm)
Average74 °F58%29.99 "Hg
* Reported Jul 8 5:20 pm — Jul 23 5:20 pm, Bretten. Weather by CustomWeather, © 2017

Note: Actual official high and low records may vary slightly from our data, if they occured in-between our weather recording intervals... More about our weather records

Advertising

Bretten Weather History for the Previous 24 Hours

Scroll right to see more
 ConditionsComfort  
Time TempWeatherWind HumidityBarometerVisibility
5:20 pm
Sun, Jul 23
72 °FPassing clouds.12 mph41%30.01 "HgN/A
4:50 pm72 °FPassing clouds.8 mph44%30.01 "HgN/A
4:20 pm72 °FPassing clouds.13 mph41%30.01 "HgN/A
3:50 pm72 °FPassing clouds.15 mph38%30.01 "HgN/A
3:20 pm72 °FPassing clouds.13 mph38%30.01 "HgN/A
2:50 pm72 °FPassing clouds.12 mph41%30.04 "HgN/A
2:20 pm72 °FPassing clouds.12 mph44%30.04 "HgN/A
1:50 pm72 °FPassing clouds.12 mph44%30.04 "HgN/A
1:20 pm72 °FBroken clouds.12 mph44%30.04 "HgN/A
12:50 pm70 °FBroken clouds.9 mph46%30.04 "HgN/A
12:20 pm70 °FBroken clouds.12 mph46%30.04 "HgN/A
11:50 am72 °FBroken clouds.15 mph47%30.04 "HgN/A
11:20 am70 °FBroken clouds.12 mph53%30.04 "HgN/A
10:50 am68 °FPartly sunny.12 mph56%30.04 "HgN/A
10:20 am68 °FPassing clouds.9 mph56%30.04 "HgN/A
9:20 am68 °FBroken clouds.9 mph69%30.01 "HgN/A
8:50 am68 °FPassing clouds.8 mph73%30.01 "HgN/A
8:20 am66 °FBroken clouds.6 mph78%30.01 "HgN/A
7:50 am66 °FScattered clouds.8 mph78%30.01 "HgN/A
7:20 am66 °FScattered clouds.8 mph83%30.01 "HgN/A
7:50 pm
Sat, Jul 22
82 °FPassing clouds.5 mph45%29.89 "HgN/A
7:20 pm82 °FPassing clouds.7 mph45%29.89 "HgN/A
Weather by CustomWeather, © 2017

See weather overviewHow to use our weather pages